Printer-friendly version

IAU Minor Planet Center

Minor Planet Center

MPEC 2002-F33 : 2001 KP77

The following Minor Planet Electronic Circular may be linked-to from your own Web pages, but must not otherwise be redistributed electronically.


Read MPEC 2002-F32 Read MPEC 2002-F34


M.P.E.C. 2002-F33                                Issued 2002 Mar. 20, 21:19 UT

     The Minor Planet Electronic Circulars contain information on unusual
         minor planets and routine data on comets.  They are published
   on behalf of Commission 20 of the International Astronomical Union by the
          Minor Planet Center, Smithsonian Astrophysical Observatory,
                          Cambridge, MA 02138, U.S.A.

             Prepared using the Tamkin Foundation Computer Network

                              MPC@CFA.HARVARD.EDU
          URL http://cfa-www.harvard.edu/iau/mpc.html  ISSN 1523-6714

                                   2001 KP77

                           Revision to MPEC 2002-B13

Observations:
     K01K77P  C2002 03 13.56821 15 58 59.34 -22 40 28.5          22.3 R      568
     K01K77P  C2002 03 14.51972 15 58 58.18 -22 40 29.3          22.1 R      568

Observer details:
568 Mauna Kea.  Observer S. S. Sheppard.  2.2-m University of Hawaii
    reflector + CCD.

First and last observations above in comparison with prediction:
Residuals in seconds of arc (or two decimals in degrees) and reference
020313 568 0.05+ 0.01-    020314 568 0.05+ 0.01-    MPO 23620

Orbital elements:
2001 KP77
Epoch 2002 May 6.0 TT = JDT 2452400.5                   MPC
M   0.21773              (2000.0)            P               Q
n   0.00343871     Peri.  218.75185     -0.48834281     +0.87238141
a  43.4716321      Node    22.04230     -0.78553839     -0.42861446
e   0.1716343      Incl.    3.31862     -0.38006675     -0.23503259
P 287              H    6.2           G   0.15           U   6
Residuals in seconds of arc
010523 807  0.1+  0.0     010612 304  0.0   0.4+    010821 807  0.0   0.4-
010523 807  0.1-  0.1-    010819 807  0.1-  0.1-    020313 568  0.0   0.1+
010612 304  0.1+  0.1+    010820 807  0.1-  0.1-    020314 568  0.0   0.1+

Ephemeris:
2001 KP77                a,e,i = 43.47, 0.17, 3                  q = 36.010
Date    TT    R. A. (2000) Decl.     Delta      r     Elong.  Phase     V
2002 03 17    15 58.91   -22 40.5   35.596   36.010   113.9     1.4    21.9
2002 03 27    15 58.56   -22 40.2   35.444   36.010   123.9     1.3    21.9
2002 04 06    15 58.03   -22 39.3   35.309   36.010   133.9     1.1    21.9
2002 04 16    15 57.36   -22 38.0   35.195   36.010   143.9     0.9    21.9
2002 04 26    15 56.57   -22 36.2   35.105   36.010   153.8     0.7    21.8
2002 05 06    15 55.68   -22 34.0   35.042   36.010   163.6     0.5    21.8
2002 05 16    15 54.74   -22 31.5   35.006   36.011   173.3     0.2    21.8
2002 05 26    15 53.77   -22 28.8   35.000   36.011   175.9     0.1    21.7
2002 06 05    15 52.83   -22 26.1   35.023   36.011   166.5     0.4    21.8
2002 06 15    15 51.93   -22 23.3   35.075   36.011   156.8     0.6    21.8
2002 06 25    15 51.11   -22 20.7   35.153   36.011   147.1     0.9    21.9
2002 07 05    15 50.41   -22 18.3   35.255   36.011   137.4     1.1    21.9
2002 07 15    15 49.84   -22 16.3   35.379   36.011   127.8     1.3    21.9
2002 07 25    15 49.43   -22 14.7   35.521   36.011   118.1     1.4    21.9
2002 08 04    15 49.20   -22 13.5   35.676   36.011   108.5     1.5    21.9
2002 08 14    15 49.16   -22 12.9   35.840   36.011    98.9     1.6    22.0
2002 08 24    15 49.30   -22 12.9   36.008   36.011    89.3     1.6    22.0
2002 09 03    15 49.64   -22 13.5   36.177   36.011    79.8     1.6    22.0
2002 09 13    15 50.17   -22 14.6   36.340   36.011    70.2     1.5    22.0
2002 09 23    15 50.87   -22 16.3   36.493   36.011    60.6     1.4    22.0
2002 10 03    15 51.73   -22 18.6   36.633   36.011    51.0     1.2    22.0
2002 10 13    15 52.74   -22 21.3   36.754   36.011    41.4     1.0    22.0
2002 10 23    15 53.87   -22 24.4   36.854   36.012    31.7     0.8    22.0

Brian G. Marsden             (C) Copyright 2002 MPC           M.P.E.C. 2002-F33

Read MPEC 2002-F32 Read MPEC 2002-F34


Our Web policy. Index to the CBAT/MPC/ICQ pages.


Valid HTML 4.01!